Location: Champs
(48.8539°N, 2.6040°E)
Time: 09:34:45
(UTC+00:00)

USA 308 - Pass Details

Date: 29 May 2022
Orbit: 549 x 558 km, 54.0° (Epoch: 14 June)

Event Time Altitude Azimuth Distance (km) Brightness Sun altitude
Exits shadow 22:48:15 21° 105° (ESE) 1,268 4.4 -18.2°
Drops below altitude 10° 22:50:22 10° 79° (E) 1,844 5.5 -18.3°
Sets 22:52:53 0° 67° (ENE) 2,745 6.5 -18.4°
